Miscellaneous Local Product
Issued by NWS North Platte, NE

Home | Current Version | Previous Version | Graphics & Text | Print | Product List | Glossary On
Versions: 1 2 3 4 5 6 7 8 9 10 11 12 13 14 15 16 17 18 19 20 21 22 23 24 25 26 27 28 29 30 31 32 33 34 35 36 37 38 39 40 41 42 43 44 45 46 47 48 49 50
000
AXUS43 KLBF 260210
MISLBF


WESTERN AND NORTH CENTRAL NEBRASKA HOURLY WEATHER ROUNDUP
NATIONAL WEATHER SERVICE NORTH PLATTE NE
900 PM CDT MON JUL 25 2016

NOTE: "FAIR" INDICATES FEW OR NO CLOUDS BELOW 12,000 FEET WITH NO
SIGNIFICANT WEATHER AND/OR OBSTRUCTIONS TO VISIBILITY.

NOTE: STATIONS NOT REPORTING VARIABLES SUCH AS SKY/WEATHER OR
PRESSURE ARE PROVIDED BY RAWS AND APRS NETWORKS AND ARE NOT UNDER
NATIONAL WEATHER SERVICE QUALITY CONTROL.

...OBSERVATIONS IN AND NEAR THE EASTERN PANHANDLE OF NEBRASKA...

CITY           SKY/WX    TMP DP  RH WIND       PRES   REMARKS
PINE RIDGE     CLEAR     84  59  42 S10       30.04R
CHADRON        CLEAR     87  58  37 SE17      30.01R
ALLIANCE       CLEAR     79  61  53 SE14      30.08R
SIDNEY         CLEAR     79  60  52 S17       30.13R
CRESCENT LAKE    N/A     79  61  54 S8G16       N/A
$$

...OBSERVATIONS IN NORTHERN NEBRASKA AND FAR SOUTHERN SOUTH DAKOTA...

CITY           SKY/WX    TMP DP  RH WIND       PRES   REMARKS
WINNER         FAIR      84  54  35 S9        30.02S
VALENTINE      CLEAR     81  59  47 S10       30.05R
THEDFORD       CLEAR     80  66  63 SE7       30.10R
AINSWORTH      CLEAR     78  59  53 SE8       30.08R
O`NEILL        CLEAR     78  60  53 SE7       30.07S
ORD            CLEAR     79  61  53 SE7       30.07R
BROKEN BOW     CLEAR     75  64  68 SE5       30.09R
VALENTINE NWR    N/A     82  61  49 S8G15       N/A
BUTTE            N/A     80  56  43 SE9         N/A
HALSEY           N/A     81  60  49 S6G13       N/A
EWING            N/A     73  64  73 CALM        N/A
$$

...OBSERVATIONS IN SOUTHWEST NEBRASKA AND FAR NORTHEAST COLORADO...

CITY           SKY/WX    TMP DP  RH WIND       PRES   REMARKS
HOLYOKE        FAIR      79  64  61 W9        30.11R
IMPERIAL       CLOUDY    81  61  50 S9        30.10R
OGALLALA       CLEAR     82  61  49 S5        30.08S
NORTH PLATTE   CLEAR     75  68  78 SE6       30.08R
MCCOOK         CLEAR     81  63  54 SE10      30.07R
LEXINGTON      CLEAR     78  67  70 SE7       30.09R
STAPLETON        N/A     75  68  79 CALM        N/A
GOTHENBURG       N/A     82  64  53 SE5         N/A
CALLAWAY         N/A     80  70  71 SE5         N/A
$$

...OBSERVATIONS IN CENTRAL LINCOLN COUNTY AREA...

CITY           SKY/WX    TMP DP  RH WIND       PRES   REMARKS
N.P. AIRPORT   CLEAR     75  68  78 SE6       30.08R
N.P. DOWNTOWN    N/A     80  67  64 CALM        N/A
N.P. SOUTHEAST   N/A     78  67  68 SE3         N/A
N.P. HILLCREST   N/A     78  69  73 SE7         N/A
$$

...SOME OBSERVATIONS FROM AROUND THE REGION...

CITY           SKY/WX    TMP DP  RH WIND       PRES   REMARKS
DENVER         PTCLDY    81  45  28 S23G31    30.12S
LARAMIE        CLOUDY    78  27  15 NW7       30.25S
CHEYENNE       CLEAR     78  59  51 SE15      30.18R
SCOTTSBLUFF    CLEAR     85  59  41 SE12      30.05R
RAPID CITY     CLOUDY    83  58  42 SE3       29.98S
BISMARCK       CLEAR     82  70  66 E7        29.90S
PIERRE         CLOUDY    86  54  33 SE10      29.93F
SIOUX FALLS    PTCLDY    78  60  53 S9        30.05R
OMAHA          PTCLDY    81  70  69 E5        30.05R
GRAND ISLAND   CLEAR     76  65  68 SE5       30.09R
KANSAS CITY    CLOUDY    80  65  59 E6        30.05R
WICHITA        CLOUDY    81  69  67 E9        30.03R
OKLAHOMA CITY  MOCLDY    82  73  74 SE7       29.93F THUNDER
DALLAS         CLOUDY    83  69  62 SE12      29.93R
AMARILLO       MOCLDY    78  61  55 CALM      30.11R
DODGE CITY     CLEAR     77  66  68 E7        30.07R
HAYS           CLEAR     79  63  57 SE7       30.06R
GOODLAND       CLEAR     75  64  68 S7        30.11F
$$




USA.gov is the U.S. government's official web portal to all federal, state and local government web resources and services.